Simultaneous Nadir Overpasses (SNOs) Predictions

Prediction of SNOs between METOP-B and TERRA Satellite Orbit:

Table of predicted SNOs for the next 14.0 days since TLE Epoch: 6/20/2020
Index Date (METOP-B) Time (METOP-B) Lat,Lon (METOP-B) SZA (METOP-B ) Date (TERRA) Time (TERRA) Lat,Lon (TERRA) SZA (TERRA ) Distance(km) Time Diff (sec)
1 06/21/2020 19:45:24 -81.32, 111.47 119.17 06/21/2020 19:45:35 -81.33, 111.47 119.17 0.60 11
2 06/21/2020 20:36:03 81.33, -80.67 60.90 06/21/2020 20:35:01 81.34, -80.78 60.85 1.89 62
3 06/24/2020 15:19:46 -81.32, 177.64 119.18 06/24/2020 15:19:51 -81.32, 177.64 119.18 0.69 5
4 06/24/2020 16:10:25 81.33, -14.53 60.89 06/24/2020 16:09:17 81.32, -14.65 60.84 2.20 68
5 06/27/2020 10:03:27 81.32, 76.32 60.86 06/27/2020 10:04:39 81.32, 76.52 60.92 3.30 72
6 06/27/2020 10:54:07 -81.32,-115.82 119.08 06/27/2020 10:54:06 -81.32,-115.86 119.09 0.74 1
7 06/27/2020 11:44:29 81.35, 58.72 61.81 06/27/2020 11:43:16 81.60, 58.14 61.84 29.41 73
8 06/30/2020 05:37:47 81.32, 142.83 61.00 06/30/2020 05:38:53 81.32, 142.96 61.05 2.20 66
9 06/30/2020 06:28:27 -81.32, -49.30 118.93 06/30/2020 06:28:20 -81.32, -49.39 118.95 1.50 7
10 07/03/2020 01:12:08 81.32,-150.67 61.20 07/03/2020 01:13:08 81.32,-150.63 61.24 0.74 60




NCC Satellite Simultaneous Nadir Overpasses (SNOs) Prediction Service
